Language: 


Des rapports , des résumés tant et plus, au choix de chacun....


Données Historiques de Météogheer
 
Journalier Rapport pour Janvier 16, 2019 Unitée:  Métrique    Impériale   Les deux
Suivant Jour »
Journalier Hebdomadaire Mensuel Annuel Sur mesure
  Actuel: Max: Min: Moyenne:
Température: 6.2 °C 6.7 °C 5.3 °C 6 °C
Point de rosée: 3.0 °C 4.0 °C 2.0 °C 2.9 °C
Humidité: 76% 84% 75% 80%
Vent: 11.6km/h 17.2km/h 0.0km/h 10km/h
Rafales: 11.6km/h 31.7km/h - -
VentSSW - - SSW
Pression: 1003.0 hPa 1015.0 hPa 1003.0 hPa -
Pluie: 0.0 mm      
Historical Graphs
 
 
Données tabulaires pour Janvier 16, 2019
Heure Température Point de rosée Pression Vent Vent Rafales Humidité Pluie Taux (Horaire) Conditions
00:00 6.0 °C 3.0 °C 1015.0 hPa SSW 9.3 km/h 16.3 km/h 83% 0.3 mm
00:05 6.0 °C 3.0 °C 1015.0 hPa SSW 8.7 km/h 16.3 km/h 83% 0.3 mm
00:10 6.1 °C 3.0 °C 1015.0 hPa SSW 6.1 km/h 14.8 km/h 83% 0.0 mm
00:15 6.1 °C 3.0 °C 1015.0 hPa SSW 13.0 km/h 14.8 km/h 83% 0.0 mm
00:20 6.1 °C 3.0 °C 1015.0 hPa SSW 10.5 km/h 13.0 km/h 83% 0.0 mm
00:25 6.1 °C 3.0 °C 1015.0 hPa SSW 9.7 km/h 15.4 km/h 83% 0.0 mm
00:30 6.0 °C 3.0 °C 1015.0 hPa SSW 9.0 km/h 16.6 km/h 83% 0.0 mm
00:35 6.0 °C 3.0 °C 1015.0 hPa SSW 16.6 km/h 16.6 km/h 83% 0.0 mm
00:40 6.0 °C 3.0 °C 1014.0 hPa SSW 10.8 km/h 16.6 km/h 83% 0.0 mm
00:45 6.1 °C 3.0 °C 1014.0 hPa SSW 13.7 km/h 15.8 km/h 83% 0.0 mm
00:50 6.1 °C 3.0 °C 1014.0 hPa South 11.9 km/h 15.8 km/h 83% 0.0 mm
00:55 6.1 °C 3.0 °C 1014.0 hPa SSW 10.1 km/h 16.3 km/h 83% 0.0 mm
01:00 6.1 °C 3.0 °C 1014.0 hPa SSW 15.4 km/h 22.7 km/h 83% 0.0 mm
01:05 6.1 °C 3.0 °C 1014.0 hPa SSW 9.0 km/h 22.7 km/h 83% 0.0 mm
01:10 6.1 °C 3.0 °C 1014.0 hPa South 10.8 km/h 17.2 km/h 83% 0.0 mm
01:15 6.1 °C 3.0 °C 1014.0 hPa SSW 10.5 km/h 17.2 km/h 83% 0.0 mm
01:20 6.1 °C 3.0 °C 1014.0 hPa SSW 11.6 km/h 15.4 km/h 83% 0.0 mm
01:25 6.1 °C 3.0 °C 1014.0 hPa SSW 11.6 km/h 14.3 km/h 83% 0.0 mm
01:30 6.1 °C 4.0 °C 1014.0 hPa SSW 10.1 km/h 13.0 km/h 84% 0.0 mm
01:35 6.1 °C 4.0 °C 1014.0 hPa SSW 9.3 km/h 13.0 km/h 84% 0.0 mm
01:40 6.2 °C 4.0 °C 1014.0 hPa SSW 12.2 km/h 15.4 km/h 84% 0.0 mm
01:45 6.2 °C 4.0 °C 1014.0 hPa SSW 9.7 km/h 15.4 km/h 84% 0.0 mm
01:50 6.2 °C 4.0 °C 1014.0 hPa SSW 9.0 km/h 13.7 km/h 84% 0.0 mm
01:55 6.2 °C 4.0 °C 1013.0 hPa SSW 11.9 km/h 13.7 km/h 84% 0.0 mm
02:00 6.2 °C 4.0 °C 1013.0 hPa SW 13.0 km/h 20.1 km/h 84% 0.0 mm
02:05 6.2 °C 4.0 °C 1013.0 hPa SSW 7.9 km/h 20.1 km/h 84% 0.0 mm
02:10 6.2 °C 4.0 °C 1013.0 hPa SSW 9.7 km/h 16.6 km/h 84% 0.0 mm
02:15 6.3 °C 4.0 °C 1013.0 hPa SSW 12.2 km/h 16.6 km/h 84% 0.0 mm
02:20 6.3 °C 4.0 °C 1013.0 hPa SSW 9.3 km/h 16.3 km/h 84% 0.0 mm
02:25 6.3 °C 4.0 °C 1013.0 hPa SSW 10.1 km/h 13.7 km/h 84% 0.0 mm
02:30 6.3 °C 4.0 °C 1013.0 hPa SSW 10.5 km/h 11.6 km/h 84% 0.0 mm
02:35 6.3 °C 4.0 °C 1013.0 hPa SSW 9.0 km/h 15.8 km/h 83% 0.0 mm
02:40 6.3 °C 4.0 °C 1013.0 hPa SSW 9.7 km/h 15.8 km/h 83% 0.0 mm
02:45 6.3 °C 4.0 °C 1013.0 hPa SSW 10.1 km/h 14.0 km/h 83% 0.0 mm
02:50 6.3 °C 4.0 °C 1013.0 hPa SSW 13.7 km/h 14.0 km/h 83% 0.0 mm
02:55 6.3 °C 4.0 °C 1012.0 hPa WSW 9.3 km/h 14.0 km/h 83% 0.0 mm
03:00 6.3 °C 4.0 °C 1012.0 hPa SSW 9.3 km/h 19.1 km/h 83% 0.0 mm
03:05 6.3 °C 4.0 °C 1012.0 hPa SSW 9.3 km/h 19.1 km/h 83% 0.0 mm
03:10 6.3 °C 4.0 °C 1013.0 hPa SSW 9.0 km/h 13.7 km/h 83% 0.0 mm
03:15 6.3 °C 4.0 °C 1013.0 hPa SSW 9.0 km/h 13.7 km/h 83% 0.0 mm
03:20 6.2 °C 4.0 °C 1013.0 hPa SSW 7.9 km/h 13.0 km/h 83% 0.0 mm
03:25 6.2 °C 4.0 °C 1013.0 hPa SSW 14.8 km/h 15.8 km/h 83% 0.0 mm
03:30 6.2 °C 4.0 °C 1013.0 hPa South 10.1 km/h 15.8 km/h 83% 0.0 mm
03:35 6.2 °C 4.0 °C 1013.0 hPa SSE 9.0 km/h 15.4 km/h 83% 0.0 mm
03:40 6.2 °C 4.0 °C 1013.0 hPa South 10.1 km/h 15.4 km/h 83% 0.0 mm
03:45 6.1 °C 3.0 °C 1013.0 hPa SSW 6.9 km/h 14.0 km/h 83% 0.0 mm
03:50 6.1 °C 3.0 °C 1013.0 hPa SSW 11.9 km/h 14.3 km/h 83% 0.0 mm
03:55 6.1 °C 3.0 °C 1013.0 hPa SSW 9.0 km/h 16.9 km/h 83% 0.0 mm
04:00 6.1 °C 3.0 °C 1013.0 hPa SSW 12.2 km/h 17.7 km/h 83% 0.0 mm
04:05 6.1 °C 3.0 °C 1013.0 hPa SSW 9.0 km/h 17.7 km/h 83% 0.0 mm
04:10 6.0 °C 3.0 °C 1013.0 hPa South 7.9 km/h 13.7 km/h 83% 0.0 mm
04:15 6.0 °C 3.0 °C 1013.0 hPa SSW 8.7 km/h 20.1 km/h 82% 0.0 mm
04:20 6.0 °C 3.0 °C 1013.0 hPa SSW 8.7 km/h 20.1 km/h 82% 0.0 mm
04:25 6.0 °C 3.0 °C 1012.0 hPa SSW 12.6 km/h 16.9 km/h 82% 0.0 mm
04:30 6.0 °C 3.0 °C 1012.0 hPa SSW 9.0 km/h 14.0 km/h 82% 0.0 mm
04:35 6.0 °C 3.0 °C 1012.0 hPa SW 9.0 km/h 13.7 km/h 82% 0.0 mm
04:40 6.0 °C 3.0 °C 1011.0 hPa SSW 11.9 km/h 13.7 km/h 82% 0.0 mm
04:45 6.0 °C 3.0 °C 1011.0 hPa SSW 9.3 km/h 14.0 km/h 82% 0.0 mm
04:50 6.0 °C 3.0 °C 1011.0 hPa SW 9.3 km/h 14.0 km/h 82% 0.0 mm
04:55 5.9 °C 3.0 °C 1011.0 hPa SSW 9.0 km/h 12.6 km/h 82% 0.0 mm
05:00 5.9 °C 3.0 °C 1011.0 hPa South 10.8 km/h 13.0 km/h 82% 0.0 mm
05:05 5.9 °C 3.0 °C 1011.0 hPa South 8.7 km/h 13.0 km/h 82% 0.0 mm
05:10 5.9 °C 3.0 °C 1011.0 hPa SSW 7.9 km/h 12.2 km/h 82% 0.0 mm
05:15 5.9 °C 3.0 °C 1011.0 hPa South 13.7 km/h 16.3 km/h 82% 0.0 mm
05:20 5.9 °C 3.0 °C 1011.0 hPa Calm   16.3 km/h 82% 0.0 mm
05:25 5.8 °C 3.0 °C 1011.0 hPa SSW 5.0 km/h 13.7 km/h 82% 0.0 mm
05:30 5.8 °C 3.0 °C 1011.0 hPa South 7.9 km/h 11.9 km/h 82% 0.0 mm
05:35 5.8 °C 3.0 °C 1011.0 hPa SSW 9.3 km/h 10.5 km/h 82% 0.0 mm
05:40 5.8 °C 3.0 °C 1011.0 hPa SSW 9.0 km/h 12.6 km/h 82% 0.0 mm
05:45 5.8 °C 3.0 °C 1011.0 hPa SSW 7.6 km/h 13.0 km/h 82% 0.0 mm
05:50 5.8 °C 3.0 °C 1011.0 hPa SSW 9.3 km/h 13.7 km/h 82% 0.0 mm
05:55 5.8 °C 3.0 °C 1011.0 hPa SSE 9.0 km/h 13.7 km/h 82% 0.0 mm
06:00 5.8 °C 3.0 °C 1011.0 hPa SSW 13.0 km/h 13.0 km/h 82% 0.0 mm
06:05 5.8 °C 3.0 °C 1011.0 hPa SSW 7.9 km/h 13.0 km/h 82% 0.0 mm
06:10 5.8 °C 3.0 °C 1011.0 hPa SW 10.5 km/h 12.2 km/h 82% 0.0 mm
06:15 5.7 °C 3.0 °C 1011.0 hPa SSW 7.9 km/h 12.2 km/h 81% 0.0 mm
06:20 5.7 °C 3.0 °C 1011.0 hPa SSW 6.1 km/h 12.2 km/h 81% 0.0 mm
06:25 5.7 °C 3.0 °C 1011.0 hPa SW 6.9 km/h 16.6 km/h 81% 0.0 mm
06:30 5.7 °C 3.0 °C 1011.0 hPa SW 13.7 km/h 18.3 km/h 81% 0.0 mm
06:35 5.7 °C 3.0 °C 1011.0 hPa SSW 8.7 km/h 18.3 km/h 81% 0.0 mm
06:40 5.7 °C 3.0 °C 1009.0 hPa SSW 9.3 km/h 16.9 km/h 81% 0.0 mm
06:45 5.7 °C 3.0 °C 1009.0 hPa SSW 10.8 km/h 15.8 km/h 80% 0.0 mm
06:50 5.6 °C 3.0 °C 1009.0 hPa SSW 13.7 km/h 15.8 km/h 80% 0.0 mm
06:55 5.6 °C 3.0 °C 1010.0 hPa SSW 9.3 km/h 14.0 km/h 80% 0.0 mm
07:00 5.6 °C 3.0 °C 1010.0 hPa SSW 9.3 km/h 14.0 km/h 80% 0.0 mm
07:05 5.6 °C 3.0 °C 1010.0 hPa SSW 12.2 km/h 16.3 km/h 80% 0.0 mm
07:10 5.6 °C 3.0 °C 1010.0 hPa SSW 17.2 km/h 17.2 km/h 79% 0.0 mm
07:15 5.6 °C 3.0 °C 1010.0 hPa SSW 12.6 km/h 17.2 km/h 79% 0.0 mm
07:20 5.5 °C 3.0 °C 1010.0 hPa SSW 9.3 km/h 14.0 km/h 79% 0.0 mm
07:25 5.5 °C 3.0 °C 1010.0 hPa SSW 12.2 km/h 17.2 km/h 79% 0.0 mm
07:30 5.5 °C 3.0 °C 1010.0 hPa SSE 13.0 km/h 19.1 km/h 79% 0.0 mm
07:35 5.5 °C 3.0 °C 1010.0 hPa SSW 6.9 km/h 20.1 km/h 79% 0.0 mm
07:40 5.5 °C 3.0 °C 1010.0 hPa South 13.7 km/h 20.1 km/h 79% 0.0 mm
07:45 5.5 °C 3.0 °C 1010.0 hPa SSW 13.0 km/h 20.9 km/h 79% 0.0 mm
07:50 5.4 °C 2.0 °C 1010.0 hPa South 10.1 km/h 20.9 km/h 79% 0.0 mm
07:55 5.4 °C 2.0 °C 1010.0 hPa SSW 9.3 km/h 16.3 km/h 79% 0.0 mm
08:00 5.4 °C 2.0 °C 1010.0 hPa SSW 8.7 km/h 16.9 km/h 79% 0.0 mm
08:05 5.4 °C 2.0 °C 1010.0 hPa SSW 9.0 km/h 18.3 km/h 79% 0.0 mm
08:10 5.4 °C 3.0 °C 1010.0 hPa South 9.0 km/h 18.3 km/h 80% 0.0 mm
08:15 5.4 °C 2.0 °C 1010.0 hPa SSW 9.0 km/h 14.0 km/h 79% 0.0 mm
08:20 5.3 °C 3.0 °C 1010.0 hPa SSE 12.6 km/h 14.3 km/h 80% 0.0 mm
08:25 5.3 °C 2.0 °C 1010.0 hPa SSW 10.1 km/h 15.4 km/h 79% 0.0 mm
08:30 5.4 °C 2.0 °C 1010.0 hPa SSW 14.0 km/h 16.9 km/h 79% 0.0 mm
08:35 5.4 °C 2.0 °C 1010.0 hPa SSW 9.0 km/h 16.9 km/h 79% 0.0 mm
08:40 5.4 °C 2.0 °C 1010.0 hPa SSW 13.0 km/h 16.3 km/h 79% 0.0 mm
08:45 5.4 °C 2.0 °C 1010.0 hPa SSW 6.9 km/h 15.8 km/h 79% 0.0 mm
08:50 5.3 °C 2.0 °C 1010.0 hPa SSW 8.7 km/h 15.8 km/h 79% 0.0 mm
08:55 5.3 °C 2.0 °C 1009.0 hPa SSW 10.5 km/h 19.5 km/h 79% 0.0 mm
09:00 5.4 °C 2.0 °C 1009.0 hPa SSW 10.5 km/h 19.5 km/h 79% 0.0 mm
09:05 5.4 °C 2.0 °C 1009.0 hPa SSW 10.1 km/h 15.4 km/h 79% 0.0 mm
09:10 5.4 °C 2.0 °C 1009.0 hPa South 10.1 km/h 16.6 km/h 79% 0.0 mm
09:15 5.4 °C 2.0 °C 1009.0 hPa SSW 12.2 km/h 16.6 km/h 79% 0.0 mm
09:20 5.4 °C 2.0 °C 1009.0 hPa SSW 8.7 km/h 16.3 km/h 79% 0.0 mm
09:25 5.4 °C 2.0 °C 1009.0 hPa SSW 11.9 km/h 16.3 km/h 79% 0.0 mm
09:30 5.4 °C 2.0 °C 1009.0 hPa SSW 8.7 km/h 14.0 km/h 79% 0.0 mm
09:35 5.4 °C 2.0 °C 1009.0 hPa SSW 11.9 km/h 16.6 km/h 79% 0.0 mm
09:40 5.4 °C 2.0 °C 1011.0 hPa SSW 13.7 km/h 16.6 km/h 79% 0.0 mm
09:45 5.4 °C 2.0 °C 1011.0 hPa SSW 14.0 km/h 17.7 km/h 79% 0.0 mm
09:50 5.4 °C 2.0 °C 1011.0 hPa South 8.7 km/h 17.7 km/h 79% 0.0 mm
09:55 5.4 °C 2.0 °C 1010.0 hPa SSW 9.0 km/h 19.5 km/h 79% 0.0 mm
10:00 5.4 °C 2.0 °C 1010.0 hPa SSE 9.0 km/h 19.5 km/h 79% 0.0 mm
10:05 5.4 °C 2.0 °C 1010.0 hPa South 10.1 km/h 20.1 km/h 79% 0.0 mm
10:10 5.4 °C 2.0 °C 1009.0 hPa SSW 10.1 km/h 20.1 km/h 79% 0.0 mm
10:15 5.4 °C 2.0 °C 1009.0 hPa SSW 5.8 km/h 17.2 km/h 79% 0.0 mm
10:20 5.4 °C 2.0 °C 1009.0 hPa SSW 10.1 km/h 19.1 km/h 79% 0.0 mm
10:25 5.4 °C 2.0 °C 1009.0 hPa SSW 9.0 km/h 19.1 km/h 79% 0.0 mm
10:30 5.4 °C 2.0 °C 1009.0 hPa SSW 9.7 km/h 15.8 km/h 79% 0.0 mm
10:35 5.4 °C 2.0 °C 1009.0 hPa South 9.7 km/h 31.7 km/h 79% 0.0 mm
10:40 5.4 °C 2.0 °C 1009.0 hPa SSW 9.0 km/h 31.7 km/h 79% 0.0 mm
10:45 5.4 °C 2.0 °C 1009.0 hPa SSW 8.7 km/h 16.3 km/h 79% 0.0 mm
10:50 5.4 °C 2.0 °C 1009.0 hPa SSW 6.4 km/h 16.3 km/h 79% 0.0 mm
10:55 5.4 °C 2.0 °C 1008.0 hPa Calm   15.4 km/h 79% 0.0 mm
11:00 5.4 °C 2.0 °C 1008.0 hPa SSW 10.5 km/h 24.8 km/h 79% 0.0 mm
11:05 5.4 °C 2.0 °C 1008.0 hPa SSW 9.0 km/h 24.8 km/h 79% 0.0 mm
11:10 5.4 °C 2.0 °C 1009.0 hPa SSW 14.0 km/h 23.8 km/h 79% 0.0 mm
11:15 5.4 °C 2.0 °C 1009.0 hPa SSW 15.8 km/h 19.5 km/h 79% 0.0 mm
11:20 5.4 °C 2.0 °C 1009.0 hPa SSW 9.0 km/h 19.5 km/h 79% 0.0 mm
11:25 5.4 °C 2.0 °C 1009.0 hPa SSW 9.0 km/h 21.2 km/h 79% 0.0 mm
11:30 5.4 °C 2.0 °C 1009.0 hPa SSW 16.6 km/h 21.2 km/h 79% 0.0 mm
11:35 5.4 °C 2.0 °C 1009.0 hPa SSW 12.2 km/h 23.3 km/h 79% 0.0 mm
11:40 5.4 °C 2.0 °C 1008.0 hPa SSW 8.7 km/h 23.3 km/h 79% 0.0 mm
11:45 5.4 °C 2.0 °C 1008.0 hPa South 12.6 km/h 20.9 km/h 79% 0.0 mm
11:50 5.4 °C 2.0 °C 1008.0 hPa SSW 16.3 km/h 20.9 km/h 79% 0.0 mm
11:55 5.4 °C 2.0 °C 1008.0 hPa SW 8.7 km/h 17.2 km/h 79% 0.0 mm
12:00 5.4 °C 2.0 °C 1008.0 hPa SSW 11.1 km/h 16.3 km/h 79% 0.0 mm
12:05 6.1 °C 3.0 °C 1008.0 hPa South 9.0 km/h 20.6 km/h 78% 0.0 mm
12:10 6.1 °C 3.0 °C 1007.0 hPa South 9.0 km/h 20.6 km/h 78% 0.0 mm
12:15 6.1 °C 3.0 °C 1007.0 hPa South 9.0 km/h 13.0 km/h 78% 0.0 mm
12:20 6.2 °C 3.0 °C 1007.0 hPa South 9.0 km/h 9.0 km/h 78% 0.0 mm
12:25 6.1 °C 3.0 °C 1007.0 hPa South 9.0 km/h 9.0 km/h 78% 0.0 mm
12:30 6.2 °C 3.0 °C 1007.0 hPa South 9.0 km/h 9.0 km/h 78% 0.0 mm
12:35 6.4 °C 3.0 °C 1007.0 hPa South 9.0 km/h 9.0 km/h 78% 0.0 mm
12:40 6.6 °C 3.0 °C 1007.0 hPa South 9.0 km/h 9.0 km/h 78% 0.0 mm
12:45 6.7 °C 3.0 °C 1007.0 hPa South 9.0 km/h 9.0 km/h 76% 0.0 mm
12:50 6.6 °C 3.0 °C 1007.0 hPa South 9.0 km/h 9.0 km/h 76% 0.0 mm
12:55 6.6 °C 3.0 °C 1006.0 hPa South 9.0 km/h 9.0 km/h 76% 0.0 mm
13:00 6.5 °C 3.0 °C 1006.0 hPa South 9.0 km/h 9.0 km/h 76% 0.0 mm
13:05 6.5 °C 3.0 °C 1006.0 hPa South 9.0 km/h 9.0 km/h 76% 0.0 mm
13:10 6.5 °C 3.0 °C 1007.0 hPa South 9.0 km/h 9.0 km/h 78% 0.0 mm
13:15 6.5 °C 3.0 °C 1007.0 hPa South 9.0 km/h 9.0 km/h 76% 0.0 mm
13:20 6.5 °C 3.0 °C 1007.0 hPa South 9.0 km/h 9.0 km/h 76% 0.0 mm
13:25 6.5 °C 3.0 °C 1006.0 hPa South 9.0 km/h 9.0 km/h 76% 0.0 mm
13:30 6.5 °C 3.0 °C 1006.0 hPa South 9.0 km/h 9.0 km/h 76% 0.0 mm
13:35 6.5 °C 3.0 °C 1006.0 hPa South 9.0 km/h 9.0 km/h 76% 0.0 mm
13:40 6.5 °C 3.0 °C 1005.0 hPa South 9.0 km/h 9.0 km/h 76% 0.0 mm
13:45 6.5 °C 3.0 °C 1005.0 hPa South 9.0 km/h 9.0 km/h 76% 0.0 mm
13:50 6.5 °C 3.0 °C 1005.0 hPa South 9.0 km/h 9.0 km/h 76% 0.0 mm
13:55 6.5 °C 3.0 °C 1005.0 hPa South 9.0 km/h 9.0 km/h 75% 0.0 mm
14:00 6.5 °C 3.0 °C 1005.0 hPa South 9.0 km/h 9.0 km/h 75% 0.0 mm
14:05 6.5 °C 3.0 °C 1005.0 hPa South 9.0 km/h 9.0 km/h 75% 0.0 mm
14:10 6.5 °C 3.0 °C 1005.0 hPa South 9.0 km/h 9.0 km/h 75% 0.0 mm
14:15 6.5 °C 3.0 °C 1005.0 hPa South 9.0 km/h 9.0 km/h 75% 0.0 mm
14:20 6.5 °C 3.0 °C 1005.0 hPa South 9.0 km/h 9.0 km/h 75% 0.0 mm
14:25 6.5 °C 3.0 °C 1005.0 hPa South 9.0 km/h 9.0 km/h 75% 0.0 mm
14:30 6.3 °C 3.0 °C 1005.0 hPa South 9.0 km/h 9.0 km/h 76% 0.0 mm
14:35 6.3 °C 3.0 °C 1005.0 hPa South 9.0 km/h 9.0 km/h 76% 0.0 mm
14:40 6.3 °C 3.0 °C 1005.0 hPa South 9.0 km/h 9.0 km/h 76% 0.0 mm
14:45 6.3 °C 3.0 °C 1005.0 hPa South 9.0 km/h 9.0 km/h 76% 0.0 mm
14:50 6.3 °C 3.0 °C 1005.0 hPa South 9.0 km/h 9.0 km/h 76% 0.0 mm
14:55 6.3 °C 3.0 °C 1005.0 hPa South 9.0 km/h 9.0 km/h 76% 0.0 mm
15:00 6.3 °C 3.0 °C 1005.0 hPa South 9.0 km/h 9.0 km/h 76% 0.0 mm
15:05 6.3 °C 3.0 °C 1005.0 hPa South 9.0 km/h 9.0 km/h 76% 0.0 mm
15:10 6.3 °C 3.0 °C 1005.0 hPa South 9.0 km/h 9.0 km/h 76% 0.0 mm
15:15 6.3 °C 3.0 °C 1005.0 hPa South 9.0 km/h 9.0 km/h 76% 0.0 mm
15:20 6.3 °C 3.0 °C 1005.0 hPa South 9.0 km/h 9.0 km/h 76% 0.0 mm
15:25 6.3 °C 3.0 °C 1004.0 hPa South 9.0 km/h 9.0 km/h 76% 0.0 mm
15:30 6.3 °C 3.0 °C 1004.0 hPa South 9.0 km/h 9.0 km/h 76% 0.0 mm
15:35 6.3 °C 3.0 °C 1004.0 hPa South 9.0 km/h 9.0 km/h 76% 0.0 mm
15:40 6.3 °C 3.0 °C 1004.0 hPa South 9.0 km/h 9.0 km/h 76% 0.0 mm
15:45 6.3 °C 3.0 °C 1004.0 hPa South 9.0 km/h 9.0 km/h 76% 0.0 mm
15:50 6.3 °C 3.0 °C 1004.0 hPa South 9.0 km/h 9.0 km/h 76% 0.0 mm
15:55 6.3 °C 3.0 °C 1004.0 hPa South 9.0 km/h 9.0 km/h 76% 0.0 mm
16:00 6.3 °C 3.0 °C 1004.0 hPa South 9.0 km/h 9.0 km/h 76% 0.0 mm
16:05 6.3 °C 3.0 °C 1004.0 hPa South 9.0 km/h 9.0 km/h 76% 0.0 mm
16:10 6.3 °C 3.0 °C 1004.0 hPa South 9.0 km/h 9.0 km/h 76% 0.0 mm
16:15 6.3 °C 3.0 °C 1004.0 hPa South 9.0 km/h 9.0 km/h 78% 0.0 mm
16:20 6.3 °C 3.0 °C 1004.0 hPa South 9.0 km/h 9.0 km/h 78% 0.0 mm
16:25 6.3 °C 3.0 °C 1004.0 hPa South 9.0 km/h 9.0 km/h 78% 0.0 mm
16:30 6.3 °C 3.0 °C 1004.0 hPa South 9.0 km/h 9.0 km/h 78% 0.0 mm
16:35 6.3 °C 3.0 °C 1004.0 hPa South 9.0 km/h 9.0 km/h 78% 0.0 mm
16:40 6.2 °C 3.0 °C 1003.0 hPa SSW 11.6 km/h 11.6 km/h 76% 0.0 mm
16:45 6.2 °C 3.0 °C 1003.0 hPa SSW 11.6 km/h 11.6 km/h 76% 0.0 mm
16:50 6.2 °C 3.0 °C 1003.0 hPa SSW 11.6 km/h 11.6 km/h 76% 0.0 mm
16:55 6.2 °C 3.0 °C 1003.0 hPa SSW 11.6 km/h 11.6 km/h 76% 0.0 mm
17:00 6.2 °C 3.0 °C 1003.0 hPa SSW 11.6 km/h 11.6 km/h 76% 0.0 mm
17:05 6.2 °C 3.0 °C 1003.0 hPa SSW 11.6 km/h 11.6 km/h 76% 0.0 mm
17:10 6.2 °C 3.0 °C 1003.0 hPa SSW 11.6 km/h 11.6 km/h 76% 0.0 mm
17:15 6.2 °C 3.0 °C 1003.0 hPa SSW 11.6 km/h 11.6 km/h 76% 0.0 mm
17:20 6.2 °C 3.0 °C 1003.0 hPa SSW 11.6 km/h 11.6 km/h 76% 0.0 mm
17:25 6.2 °C 3.0 °C 1003.0 hPa SSW 11.6 km/h 11.6 km/h 76% 0.0 mm
17:30 6.2 °C 3.0 °C 1003.0 hPa SSW 11.6 km/h 11.6 km/h 76% 0.0 mm
17:35 6.2 °C 3.0 °C 1003.0 hPa SSW 11.6 km/h 11.6 km/h 76% 0.0 mm
17:40 6.2 °C 3.0 °C 1003.0 hPa SSW 11.6 km/h 11.6 km/h 76% 0.0 mm
17:45 6.2 °C 3.0 °C 1003.0 hPa SSW 11.6 km/h 11.6 km/h 76% 0.0 mm
17:50 6.2 °C 3.0 °C 1003.0 hPa SSW 11.6 km/h 11.6 km/h 76% 0.0 mm
17:55 6.2 °C 3.0 °C 1003.0 hPa SSW 11.6 km/h 11.6 km/h 76% 0.0 mm
Données Historique de Météo Turbie

Mise a jour : 16/01/2019 17:54:11
Généré par Cumulus 1.9.4 (1099)